This demonstration page uses our WeatherBlox Daily Observations layout. Learn more.

Left ArrowRight Arrow

Hourly Observations for July 8, 2015

Temp ( °F °C ) Dew Point ( °F °C ) Humidity (%) Winds ( mph kmh ) Pressure ( in mb ) Visibility ( mi km ) Precip ( " mm )
12:53 am 00:53 Clear 77 25 54 12.2 45 45 W 5 7 29.79 1009 10 16 0.00 0.00
1:53 am 01:53 Clear 76 24.4 54 12.2 47 47 N 3 6 29.78 1008 10 16 0.00 0.00
2:53 am 02:53 Clear 76 24.4 53 11.7 45 45 S 3 6 29.78 1008 10 16 0.00 0.00
3:53 am 03:53 Clear 75 23.9 55 12.8 50 50 S 5 7 29.77 1008 10 16 0.00 0.00
4:53 am 04:53 Clear 75 23.9 54 12.2 48 48 Calm 29.76 1008 10 16 0.00 0.00
5:53 am 05:53 Sunny 73 22.8 53 11.7 50 50 S 8 13 29.78 1008 10 16 0.00 0.00
6:53 am 06:53 Sunny 72 22.2 53 11.7 52 52 S 5 7 29.80 1009 10 16 0.00 0.00
7:53 am 07:53 Sunny 74 23.3 53 11.7 48 48 SE 3 6 29.81 1009 10 16 0.00 0.00
8:53 am 08:53 Sunny 77 25 54 12.2 45 45 SSE 3 6 29.80 1009 10 16 0.00 0.00
9:53 am 09:53 Sunny 80 26.7 55 12.8 42 42 S 6 9 29.78 1008 10 16 0.00 0.00
10:53 am 10:53 Sunny 85 29.4 56 13.3 37 37 SW 6 9 29.74 1007 10 16 0.00 0.00
11:53 am 11:53 Sunny 92 33.3 53 11.7 27 27 VRB 3 6 29.72 1007 10 16 0.00 0.00
12:53 pm 12:53 Sunny 92 33.3 54 12.2 28 28 VRB 6 9 29.69 1006 10 16 0.00 0.00
1:53 pm 13:53 Sunny 95 35 55 12.8 26 26 SSE 14 22 29.66 1005 10 16 0.00 0.00
2:53 pm 14:53 Partly Cloudy 92 33.3 56 13.3 30 30 SSE 18 30 29.65 1004 10 16 0.00 0.00
3:53 pm 15:53 Sunny 88 31.1 57 13.9 35 35 SSE 24 39 29.66 1004 10 16 0.00 0.00
4:53 pm 16:53 Mostly Cloudy 84 28.9 57 13.9 40 40 S 18 30 29.64 1004 10 16 0.00 0.00
5:53 pm 17:53 Partly Cloudy 84 28.9 52 11.1 33 33 SSW 9 15 29.69 1005 10 16 0.00 0.00
6:53 pm 18:53 Cloudy 83 28.3 52 11.1 34 34 ENE 6 9 29.73 1007 10 16 0.00 0.00
7:53 pm 19:53 Mostly Cloudy 80 26.7 59 15 49 49 NW 5 7 29.73 1007 10 16 0.00 0.00
8:53 pm 20:53 Mostly Clear 75 23.9 62 16.7 64 64 N 8 13 29.74 1007 10 16 0.00 0.00
9:53 pm 21:53 Clear 75 23.9 61 16.1 62 62 W 7 11 29.76 1008 10 16 0.00 0.00
10:53 pm 22:53 Clear 73 22.8 62 16.7 69 69 Calm 29.75 1008 10 16 0.00 0.00
11:53 pm 23:53 Clear 73 22.8 61 16.1 66 66 N 8 13 29.74 1007 10 16 0.00 0.00

Powered by AerisWeather